Location: Ecklingerode
(51.5036°N, 10.3122°E)
Time: 14:14:50
(UTC+00:00)

FALCON 9 DEB - Pass Details

Date: 29 October 2020
Orbit: 378 x 396 km, 53.0° (Epoch: 28 November)

Event Time Altitude Azimuth Distance (km) Brightness Sun altitude
Rises 16:48:57 0° 234° (SW) 2,305 8.2 -8.7°
Reaches altitude 10° 16:51:04 10° 229° (SW) 1,446 6.8 -9.0°
Maximum altitude 16:54:12 49° 154° (SSE) 520 3.4 -9.5°
Enters shadow 16:56:40 15° 81° (E) 1,180 4.6 -9.8°
